Regional Weather Roundup
Issued by NWS Little Rock, AR

Home | Current Version | Previous Version | Graphics & Text | Print | Product List | Glossary On
Versions: 1 2 3 4 5 6 7 8 9 10 11 12 13 14 15 16 17 18 19 20 21 22 23 24 25 26 27 28 29 30 31 32 33 34 35 36 37 38 39 40 41 42 43 44 45 46 47
000
ASUS44 KLZK 290305
RWRLZK

WEATHER ROUNDUP FOR ARKANSAS
NATIONAL WEATHER SERVICE LITTLE ROCK AR
1000 PM CDT TUE JUL 28 2015

NOTE: "FAIR" INDICATES FEW OR NO CLOUDS BELOW 12,000 FEET WITH NO
SIGNIFICANT WEATHER AND/OR OBSTRUCTIONS TO VISIBILITY.

ARZ001-003-010-029-290400-
NORTHWEST ARKANSAS

CITY           SKY/WX    TMP DP  RH WIND       PRES   REMARKS
FAYETTEVILLE   CLEAR     79  77  94 CALM      29.98R
FORT SMITH     CLEAR     88  68  51 S5        29.92R HX  91
HARRISON       CLEAR     81  76  84 S3        30.00R HX  87
BENTONVILLE    CLEAR     82  72  69 CALM      29.99R HX  87
ROGERS         CLEAR     82  75  79 SE6       29.99R HX  89
SILOAM SPGS    CLEAR     81  72  74 CALM      29.96R
HIGHFILL       CLEAR     81  76  84 CALM      29.97R HX  87
$$

ARZ004-005-016-290400-
NORTH CENTRAL ARKANSAS

CITY           SKY/WX    TMP DP  RH WIND       PRES   REMARKS
BATESVILLE     CLEAR     86  75  70 CALM      29.96R HX  95
FLIPPIN        CLEAR     82  75  78 NE5       29.96R HX  89
MTN HOME       CLEAR     82  76  81 CALM      29.97R HX  89
$$

ARZ040-041-290400-
WEST CENTRAL ARKANSAS

CITY           SKY/WX    TMP DP  RH WIND       PRES   REMARKS
MENA           CLEAR     86  70  58 CALM      29.98R HX  90
MOUNT IDA      CLEAR     84  72  67 CALM      29.95R HX  89
$$

ARZ009-017-025-026-028-290400-
NORTHEAST ARKANSAS

CITY           SKY/WX    TMP DP  RH WIND       PRES   REMARKS
JONESBORO      CLEAR     81  79  94 CALM      29.96R HX  90
NEWPORT        CLEAR     83  80  90 SE6       29.97R HX  95
WALNUT RIDGE   CLEAR     84  77  79 SE7       29.96R HX  94
BLYTHEVILLE    CLEAR     83  80  91 E3        29.98R HX  95
$$

ARZ022-023-033-042-044-290400-
CENTRAL ARKANSAS

CITY           SKY/WX    TMP DP  RH WIND       PRES   REMARKS
LITTLE ROCK    CLEAR     86  76  71 CALM      29.96R HX  96
N LITTLE ROCK  CLEAR     87  76  70 S3        29.96R HX  96
JACKSONVILLE   CLEAR     88  74  64 SE3       29.96R HX  96
HOT SPRINGS    CLEAR     85  72  65 CALM      29.96R HX  91
RUSSELLVILLE   CLEAR     82  77  84 CALM      29.95R HX  90
CLINTON        FAIR      81  79  94 CALM      29.97R HX  89
$$

ARZ036-290400-
EAST ARKANSAS

CITY           SKY/WX    TMP DP  RH WIND       PRES   REMARKS
WEST MEMPHIS   CLEAR     83  80  91 CALM      29.97R HX  95
$$

ARZ050-053-066-070-073-290400-
SOUTHWEST ARKANSAS

CITY           SKY/WX    TMP DP  RH WIND       PRES   REMARKS
ARKADELPHIA    FAIR      83  79  88 CALM      29.95R HX  94
CAMDEN         CLEAR     81  75  83 CALM      29.94R HX  86
TEXARKANA      CLEAR     85  71  63 S7        29.95R HX  90
EL DORADO      CLEAR     82  76  81 CALM      29.96R HX  89
DE QUEEN       CLEAR     80  76  87 CALM      29.92R HX  86
$$

ARZ056-057-069-290400-
SOUTHEAST ARKANSAS

CITY           SKY/WX    TMP DP  RH WIND       PRES   REMARKS
PINE BLUFF     CLEAR     84  77  79 CALM      29.96R HX  94
STUTTGART      CLEAR     88  75  66 S5        29.96R HX  97
MONTICELLO     CLEAR     84  76  76 CALM      29.96R HX  93

$$




USA.gov is the U.S. government's official web portal to all federal, state and local government web resources and services.